Regional Weather Roundup
Issued by NWS

Home | Current Version | Previous Version | Graphics & Text | Print | Product List | Glossary On
Versions: 1 2 3 4 5 6 7 8 9 10 11 12 13 14 15 16 17 18 19 20 21 22 23 24 25 26 27 28 29 30 31 32 33 34 35 36 37 38 39 40 41 42 43 44 45 46 47 48 49 50
000
ASUS43 KBIS 190302
RWRND

NORTH DAKOTA REGIONAL WEATHER ROUNDUP
NATIONAL WEATHER SERVICE BISMARCK ND
1000 PM CDT MON SEP 18 2017

NOTE: "FAIR" INDICATES FEW OR NO CLOUDS BELOW 12,000 FEET WITH NO
SIGNIFICANT WEATHER AND/OR OBSTRUCTIONS TO VISIBILITY.


NDZ001>003-009>011-017-190400-
NORTHWEST NORTH DAKOTA

CITY           SKY/WX    TMP DP  RH WIND       PRES   REMARKS
WILLISTON      CLOUDY    64  45  49 SE10      29.66F
MINOT          CLEAR     56  49  77 SE9       29.75S
MINOT AFB      CLEAR     55  49  80 SE10      29.73F
$$

NDZ018>021-031>035-040>046-190400-
SOUTHWEST NORTH DAKOTA

CITY           SKY/WX    TMP DP  RH WIND       PRES   REMARKS
BISMARCK       CLEAR     57  49  74 NE6       29.78S
DICKINSON      CLEAR     60  44  55 SE13      29.70F
GARRISON         N/A     58  50  75 E9        29.75F
HETTINGER ARPT CLOUDY    58  41  53 E12       29.74S
$$

NDZ004>008-012>016-024-026-027-054-190400-
NORTHEAST NORTH DAKOTA

CITY           SKY/WX    TMP DP  RH WIND       PRES   REMARKS
GRAND FORKS    CLOUDY    58  56  93 SE13      29.82F
GRND FRKS AFB  CLEAR     57  55  94 SE9       29.83F
DEVILS LAKE    CLOUDY    56  52  86 E9        29.81S FOG
$$

NDZ022-023-025-028>030-036>039-047>053-190400-
SOUTHEAST NORTH DAKOTA

CITY           SKY/WX    TMP DP  RH WIND       PRES   REMARKS
FARGO          CLOUDY    61  58  90 SE12      29.82F
JAMESTOWN      PTCLDY    56  52  86 SE7       29.79S
$$





USA.gov is the U.S. government's official web portal to all federal, state and local government web resources and services.